CZ-6A DEB, 55542

Orbit data source: Space-Track

CZ-6A DEB, 55542 is space debris in SSO originally from a launch on Fri, 11 Nov 2022 UTC launched from the Taiyaun Space Center, China (TSC). Debris objects in space refer to the collection of defunct objects orbiting the Earth. Examples of debris include non-operational satellites, rocket bodies, and fragments generated from explosions, collisions, or faulty payload assembly.

Loading next visibility...
Identifier
55542, 2022-151YQ
Orbit
SSO
Country
Flag of CNCN / PRC
Related business
Manufacturer
SAST
Mission
Spacecraft
Bus & Motor
Unknown
Mass
Unknown
Launch date (UTC)
2022-11-11 (4 years ago)
Launch vehicle
Unknown
Launch site
Taiyaun Space Center, China (TSC)
Object type
Payload
Rocket body
Debris
Shape & HBR
Unknown shape, 0.1 m
Radar Cross Section
Medium (>0.1 m² and <1 m²)

Expand to show TLE details & history
Last TLE update: 5 hours ago

TLE from 5 hours ago
0 CZ-6A DEB
1 55542U 22151YQ  26236.49472097  .00001317  00000-0  58697-3 0  9993
2 55542  98.7993 258.7233 0015282  45.8130 314.4302 14.24493670190532
Epoch: 2026-08-24T11:52Z
TLE epoch observation values (Epoch: 2026-08-24T11:52:23.891Z)
Latitude
-0°
Longitude
107.84814°
Altitude
805.43 km
Speed
7.455 km/s
True Right ascension
17h 14m 53s
True Declination
0° 00' 00"
Sunlit
Object was in daylight at epoch
Visualization orbit readout
Latitude
Unknown
Longitude
Unknown
Altitude
Unknown
Speed
Unknown
Apparent Right ascension
Unknown
Apparent Declination
Unknown
Sunlit
N/A
Visualization observer readout
Local Sidereal Time
08:06:21
Azimuth
Unknown
Elevation
Unknown
Doppler factor
Unknown
Orbital elements
Apogee altitude
818.333 km
Perigee altitude
796.372 km
Semi-major axis
7,185.489 km
Eccentricity
0.00153
Inclination
98.7993°
RAAN
258.7233°
Arg. of periapsis
45.813°
True anomaly
314.30498°
Mean anomaly
314.4302°
Eccentric anomaly
314.36761°
Mean motion
3.56335 °/min
Orbital period
101.03 mins
BSTAR
0.00058697
Loading maneuver chart data...
Computing Atmospheric mass density...
Loading historical data...
Loading historical data...
Loading historical data...
Loading historical data...
Loading historical data...
Loading historical data...
Loading historical data...

Documentation

Showing up to 5 results
|